User: anonymous   Login
Location: Unspecified
(0.0000°N, 0.0000°E)
Time: 01:56:10
(UTC+00:00)
Language:

STARLINK-3678 - Orbit

View from above orbital plane
View from above orbital plane
View from above satellite
View from above satellite

Ground track
Ground track

The orbit is defined by the following mean orbital elements,

1 52121U          26145.53937059 +.00000000 +00000-0 -76566-5 0 00009
2 52121  53.2135  84.1257 0001582  56.5680 303.5464 15.08837230    07
Epoch (UTC): 25 May 2026 12:56:41
Eccentricity: 0.0001582
inclination: 53.2135°
perigee height: 539 km
apogee height: 541 km
right ascension of ascending node: 84.1257°
argument of perigee: 56.5680°
revolutions per day: 15.08837230
mean anomaly at epoch: 303.5464°

The dashed part of the orbit path shows where the satellite is in the earth's shadow,  

DLR